星链-30079 (STARLINK-30079 )

导读

STARLINK-30079是美国SpaceX公司星链计划中的一颗卫星,于2023年5月19日发射升空,隶属于美国太空探索技术公司的星链星座项目。星链项目旨在构建全球卫星互联网,该卫星承担着为全球提供高速互联网接入服务的任务,进一步扩充了星链星座的规模,推动了全球卫星通信网络的部署。

Basic Information
目录编号:
56706
目录名称:
STARLINK-30079
国际标识:
2023-067U
轨道中心:
EARTH
卫星名称:
星链-30079
卫星全名:
星链-30079 (STARLINK-30079 )
卫星状态:
在轨 (已飞行1126 天)
发射日期:
2023-05-19 UTC
国别 :
美国 (US)
星等 :
--
Orbit Information
数据来源 国际轨道数据 AOE轨道数据
星历时间 2026-06-18T10:07:50+0800
13小时前
查看轨道信息
2026-06-14T23:00:00+0800
4天前
查看轨道信息
半长轴 6861.142km 6861.192km
偏心率 0.000154 0.0001292
轨道倾角 43.006° 43.003°
近地点辐角 265.553° 244.067°
升交点赤经 74.377° 93.937°
平近点角 94.514° 125.322°
近地点 481.948km 482.168km
远地点 484.062km 483.942km
周期 94.266分钟 94.267分钟
每日圈数 15.275948 15.275783
Detailed Information
固有亮度:
5
最大亮度:
0.3
卫星平台:
Starlink v2.0 mini
覆盖范围:
全球
运营商:
太空探索技术公司
运营商所在国:
美国
制造商(研发单位):
太空探索技术公司
制造商所在国:
美国
使用方式:
暂无
Satellite Introduction
星链(Starlink)计划是由太空探索技术公司(SpaceX)提出的一个巨型低轨卫星互联网星座项目,计划在2019年至2024年间在太空搭建由约1.2万颗卫星组成的“星链”网络,其中1584颗将部署在地球上空550千米处的近地轨道,并从2020年开始工作。该卫星仍在工作。
2D Orbit Map
3D Orbit Map
Orbit Altitude Analysis Chart
Orbit Inclination Analysis Chart
Orbit Comprehensive Analysis Chart
View Comprehensive Chart